GW3565 Weather Reports


time (UTC)temp
C
wind
direction
speed
KPH
gust
KPH
rain 1hr
cm
rain 24hr
cm
rain mn
cm
humidity
%
barometer
mb
20260504035511 18 184 1.6 8.0 0.00 0.00 0.00 38 993.2
20260504035014 18 168 1.6 14.5 0.00 0.00 0.00 39 993.2
20260504034519 18 224 3.2 14.5 0.00 0.00 0.00 38 993.3
20260504034013 18 200 3.2 6.4 0.00 0.00 0.00 37 993.4
20260504033511 18 258 1.6 9.7 0.00 0.00 0.00 37 993.7
20260504033019 18 249 1.6 20.9 0.00 0.00 0.00 37 993.6
20260504032507 18 307 3.2 22.5 0.00 0.00 0.00 36 993.7
20260504032011 18 288 9.7 22.5 0.00 0.00 0.00 37 993.8
20260504031522 18 259 9.7 20.9 0.00 0.00 0.00 35 994.2
20260504031013 18 217 9.7 20.9 0.00 0.00 0.00 33 994.2
20260504030514 19 320 12.9 19.3 0.00 0.00 0.00 33 994.5
20260504030027 19 192 6.4 33.8 0.00 0.00 0.00 32 993.0
20260504025512 19 185 14.5 33.8 0.00 0.00 0.00 32 993.0
20260504025011 19 169 14.5 25.7 0.00 0.00 0.00 31 992.9
20260504024529 19 176 8.0 29.0 0.00 0.00 0.00 31 993.2
20260504024011 19 170 11.3 29.0 0.00 0.00 0.00 31 993.3
20260504023507 19 165 11.3 22.5 0.00 0.00 0.00 31 993.3
20260504023027 20 182 11.3 27.4 0.00 0.00 0.00 30 993.4
20260504022511 20 177 12.9 30.6 0.00 0.00 0.00 30 993.5
20260504022010 20 169 14.5 30.6 0.00 0.00 0.00 30 993.8
20260504021521 20 169 9.7 22.5 0.00 0.00 0.00 30 993.9
20260504021010 20 174 9.7 19.3 0.00 0.00 0.00 30 994.0
20260504020508 20 180 9.7 19.3 0.00 0.00 0.00 30 994.1
20260504020026 20 173 9.7 19.3 0.00 0.00 0.00 29 994.2
20260504015503 20 144 8.0 22.5 0.00 0.00 0.00 29 994.3
20260504015004 21 157 8.0 22.5 0.00 0.00 0.00 28 994.3
20260504014508 21 167 8.0 19.3 0.00 0.00 0.00 28 994.5
20260504014004 21 177 9.7 19.3 0.00 0.00 0.00 28 994.6
20260504013508 21 169 9.7 17.7 0.00 0.00 0.00 28 994.8
20260504013017 21 186 11.3 17.7 0.00 0.00 0.00 28 995.0
20260504012505 21 200 9.7 19.3 0.00 0.00 0.00 28 995.1
20260504012003 21 208 6.4 19.3 0.00 0.00 0.00 28 995.2
20260504011518 21 165 9.7 17.7 0.00 0.00 0.00 27 995.3
20260504011008 21 229 9.7 20.9 0.00 0.00 0.00 27 995.4
20260504010503 21 174 8.0 20.9 0.00 0.00 0.00 27 995.5
20260504010010 21 191 6.4 19.3 0.00 0.00 0.00 27 995.7
20260504005508 21 161 6.4 19.3 0.00 0.00 0.00 27 995.8
20260504005011 21 175 8.0 20.9 0.00 0.00 0.00 27 996.0
20260504004506 22 210 6.4 20.9 0.00 0.00 0.00 26 996.1
20260504004002 22 194 6.4 19.3 0.00 0.00 0.00 27 996.2
20260504003506 22 198 8.0 24.1 0.00 0.00 0.00 27 996.3
20260504003009 22 217 9.7 24.1 0.00 0.00 0.00 26 996.2
20260504002505 22 262 8.0 20.9 0.00 0.00 0.00 26 996.3
20260504002009 22 217 6.4 20.9 0.00 0.00 0.00 25 996.5
20260504001512 22 259 6.4 20.9 0.00 0.00 0.00 25 996.7
20260504001002 22 265 8.0 24.1 0.00 0.00 0.00 25 996.8
20260504000507 22 277 9.7 27.4 0.00 0.00 0.00 24 996.9
20260504000019 22 220 14.5 30.6 0.00 0.00 0.00 24 997.1
20260503235509 22 311 16.1 30.6 0.00 0.00 0.00 24 997.1
20260503235005 22 221 12.9 29.0 0.00 0.00 0.00 25 997.2
20260503234517 22 196 9.7 29.0 0.00 0.00 0.00 24 997.4
20260503234009 22 275 12.9 27.4 0.00 0.00 0.00 24 997.4
20260503233503 22 284 11.3 25.7 0.00 0.00 0.00 24 997.5
20260503233015 22 236 8.0 25.7 0.00 0.00 0.00 24 997.6
20260503232505 22 192 11.3 30.6 0.00 0.00 0.00 23 997.7
20260503232003 22 209 12.9 30.6 0.00 0.00 0.00 23 997.9
20260503231514 22 253 12.9 30.6 0.00 0.00 0.00 24 997.9
20260503231006 22 242 11.3 27.4 0.00 0.00 0.00 24 998.0
20260503230508 22 194 11.3 27.4 0.00 0.00 0.00 25 998.3
20260503230008 22 300 9.7 32.2 0.00 0.00 0.00 25 998.4
20260503225508 22 270 9.7 32.2 0.00 0.00 0.00 25 998.4
20260503225014 22 236 17.7 32.2 0.00 0.00 0.00 25 998.4
20260503224520 22 290 9.7 32.2 0.00 0.00 0.00 24 998.5
20260503224005 22 262 11.3 32.2 0.00 0.00 0.00 26 998.6
20260503223510 22 254 8.0 25.7 0.00 0.00 0.00 26 998.8
20260503223024 22 204 6.4 25.7 0.00 0.00 0.00 26 998.8
20260503222509 22 238 8.0 27.4 0.00 0.00 0.00 27 999.0
20260503222007 22 236 6.4 27.4 0.00 0.00 0.00 27 999.3
20260503221507 22 177 8.0 20.9 0.00 0.00 0.00 27 999.4
20260503221006 22 194 9.7 29.0 0.00 0.00 0.00 27 999.6
20260503220507 22 242 8.0 29.0 0.00 0.00 0.00 27 999.7
20260503220012 22 249 9.7 25.7 0.00 0.00 0.00 27 999.9
20260503215510 22 248 9.7 27.4 0.00 0.00 0.00 26 1000.0
20260503215006 22 224 8.0 30.6 0.00 0.00 0.00 26 1000.1
20260503214518 22 242 14.5 30.6 0.00 0.00 0.00 27 1000.1
20260503214009 22 213 12.9 27.4 0.00 0.00 0.00 26 1000.3
20260503213513 22 264 9.7 22.5 0.00 0.00 0.00 26 1000.6
20260503213012 22 208 12.9 25.7 0.00 0.00 0.00 26 1000.6
20260503212508 22 248 11.3 27.4 0.00 0.00 0.00 26 1000.7
20260503212013 23 267 8.0 27.4 0.00 0.00 0.00 26 1000.8
20260503211529 23 254 8.0 22.5 0.00 0.00 0.00 27 1001.1
20260503211006 23 233 8.0 24.1 0.00 0.00 0.00 25 1001.1
20260503210510 23 287 9.7 24.1 0.00 0.00 0.00 28 1001.4
20260503210010 23 189 11.3 24.1 0.00 0.00 0.00 25 1001.5
20260503205507 23 202 6.4 27.4 0.00 0.00 0.00 27 1001.7
20260503205008 23 193 8.0 29.0 0.00 0.00 0.00 27 1002.0
20260503204519 23 286 11.3 29.0 0.00 0.00 0.00 26 1002.1
20260503204008 23 195 11.3 29.0 0.00 0.00 0.00 25 1002.3
20260503203507 23 209 8.0 29.0 0.00 0.00 0.00 27 1002.4
20260503203024 23 234 11.3 29.0 0.00 0.00 0.00 26 1002.6
20260503202509 23 208 9.7 22.5 0.00 0.00 0.00 28 1002.7
20260503202007 23 267 8.0 25.7 0.00 0.00 0.00 26 1002.8
20260503201520 23 257 9.7 30.6 0.00 0.00 0.00 26 1002.9
20260503201011 23 240 14.5 30.6 0.00 0.00 0.00 27 1003.0
20260503200514 23 262 8.0 24.1 0.00 0.00 0.00 28 1003.1
20260503200017 23 275 14.5 24.1 0.00 0.00 0.00 26 1003.5
20260503195509 23 223 6.4 25.7 0.00 0.00 0.00 29 1003.4
20260503195014 23 196 11.3 30.6 0.00 0.00 0.00 28 1003.6
20260503194514 23 236 9.7 37.0 0.00 0.00 0.00 26 1003.7
20260503194005 23 272 14.5 37.0 0.00 0.00 0.00 28 1004.0
20260503193508 23 236 14.5 37.0 0.00 0.00 0.00 27 1003.8
20260503193019 22 275 11.3 24.1 0.00 0.00 0.00 31 1003.8
20260503192505 22 258 8.0 25.7 0.00 0.00 0.00 29 1004.0
20260503192007 22 295 11.3 25.7 0.00 0.00 0.00 28 1004.0
20260503191534 22 277 9.7 25.7 0.00 0.00 0.00 29 1004.2
20260503191007 22 249 9.7 24.1 0.00 0.00 0.00 28 1004.2
20260503190508 22 285 11.3 22.5 0.00 0.00 0.00 28 1004.4
20260503190024 22 179 8.0 22.5 0.00 0.00 0.00 30 1004.6
20260503185510 22 249 6.4 22.5 0.00 0.00 0.00 31 1004.7
20260503185005 22 232 8.0 25.7 0.00 0.00 0.00 30 1005.0
20260503184522 22 244 9.7 25.7 0.00 0.00 0.00 31 1005.1
20260503184010 22 283 11.3 24.1 0.00 0.00 0.00 30 1005.4
20260503183514 21 263 9.7 25.7 0.00 0.00 0.00 30 1005.5
20260503183014 21 309 9.7 25.7 0.00 0.00 0.00 32 1005.6
20260503182507 21 175 9.7 20.9 0.00 0.00 0.00 30 1005.9
20260503182010 21 329 11.3 20.9 0.00 0.00 0.00 30 1006.0
20260503181517 20 299 6.4 20.9 0.00 0.00 0.00 31 1006.0
20260503181008 20 240 8.0 20.9 0.00 0.00 0.00 31 1006.2
20260503180512 20 245 6.4 20.9 0.00 0.00 0.00 34 1006.4
20260503180032 20 286 6.4 19.3 0.00 0.00 0.00 30 1006.5
20260503175507 20 252 4.8 19.3 0.00 0.00 0.00 32 1006.7
20260503175010 20 311 6.4 17.7 0.00 0.00 0.00 32 1006.7
20260503174525 20 306 9.7 17.7 0.00 0.00 0.00 31 1006.8
20260503174010 20 345 8.0 20.9 0.00 0.00 0.00 31 1006.9
20260503173512 20 211 9.7 25.7 0.00 0.00 0.00 31 1007.1
20260503173026 20 287 6.4 25.7 0.00 0.00 0.00 29 1007.2
20260503172512 20 257 11.3 24.1 0.00 0.00 0.00 31 1007.3
20260503172011 19 268 8.0 19.3 0.00 0.00 0.00 31 1007.3
20260503171516 19 293 9.7 19.3 0.00 0.00 0.00 30 1007.5
20260503171006 19 203 8.0 19.3 0.00 0.00 0.00 30 1007.7
20260503170507 19 281 6.4 19.3 0.00 0.00 0.00 34 1007.7
20260503151002 13 326 3.2 11.3 0.00 0.00 0.00 37 1009.6
20260503150505 13 228 1.6 9.7 0.00 0.00 0.00 39 1009.7
20260503131003 5 252 4.8 11.3 0.00 0.00 0.00 66 1010.8
20260503130506 4 263 3.2 6.4 0.00 0.00 0.00 68 1010.8
20260503110510 1 263 0.0 1.6 0.00 0.00 0.00 69 1010.1
20260503090508 5 352 0.0 6.4 0.00 0.00 0.00 59 1010.0
20260503081525 6 345 4.8 19.3 0.00 0.00 0.00 56 1009.7
20260503081009 6 350 8.0 19.3 0.00 0.00 0.00 55 1009.8
20260503080506 6 325 3.2 14.5 0.00 0.00 0.00 55 1009.7
20260503072506 7 344 4.8 14.5 0.00 0.00 0.00 55 1009.7
20260503072004 7 315 3.2 14.5 0.00 0.00 0.00 55 1009.7
20260503071513 7 360 1.6 12.9 0.00 0.00 0.00 56 1009.7
20260503071007 7 10 3.2 8.0 0.00 0.00 0.00 57 1009.6
20260503070506 7 5 4.8 11.3 0.00 0.00 0.00 57 1009.6
20260503055003 10 327 6.4 14.5 0.00 0.00 0.00 58 1009.2
20260503054517 10 360 3.2 14.5 0.00 0.00 0.00 58 1009.2
20260503054006 10 326 8.0 14.5 0.00 0.00 0.00 58 1009.1
20260503053504 10 336 6.4 17.7 0.00 0.00 0.00 58 1009.1
20260503053008 10 17 6.4 17.7 0.00 0.00 0.00 58 1009.0
20260503052509 10 336 4.8 14.5 0.00 0.00 0.00 57 1009.0
20260503052003 10 9 8.0 19.3 0.00 0.00 0.00 57 1008.9
20260503051510 10 352 4.8 19.3 0.00 0.00 0.00 57 1009.0
20260503051004 11 343 6.4 16.1 0.00 0.00 0.00 57 1008.9
20260503050506 11 344 8.0 17.7 0.00 0.00 0.00 57 1008.9
20260503050013 11 5 8.0 20.9 0.00 0.00 0.00 56 1008.9
20260503045507 11 337 6.4 20.9 0.00 0.00 0.00 56 1008.9
20260503045009 11 344 6.4 20.9 0.00 0.00 0.00 55 1008.9
20260503044517 11 326 6.4 17.7 0.00 0.00 0.00 55 1008.8
20260503044003 11 309 8.0 19.3 0.00 0.00 0.00 55 1008.9
20260503043507 11 323 9.7 20.9 0.00 0.00 0.00 56 1008.8
20260503043036 11 331 11.3 20.9 0.00 0.00 0.00 56 1008.8
20260503042513 11 338 4.8 20.9 0.00 0.00 0.00 56 1008.8
20260503042008 11 5 9.7 19.3 0.00 0.00 0.00 57 1008.8
20260503041516 11 344 4.8 20.9 0.00 0.00 0.00 58 1008.8
20260503041016 11 348 9.7 20.9 0.00 0.00 0.00 59 1008.8
20260503040504 10 338 8.0 16.1 0.00 0.00 0.00 60 1008.8
20260503040008 10 350 6.4 12.9 0.00 0.00 0.00 63 1008.8